^^

..:: Storico WU ::..




Lo storico viene creato da WUnderground con i dati che la stazione Meteomincio invia al loro server. L' aggiornamento viene fatto ogni 5 minuti circa, tuttavia possono esserci intervalli pił ampi a causa di errori, interruzioni di servizio o problemi nell' invio tramite FTP.


Storico stazione MeteoMincio
Giorno Sommario per Luglio 06, 2022 Unità:  Inglese    Metrico   Entrambi
Giorno Settimana Mese Anno
  Max: Min: Media:
Temperatura: 89.6 °F 68 °F 79.9 °F
Dew Point: 69.8 °F 62.6 °F 66.7 °F
Umidità: 89% 47% 65%
Velocità vento: 18.6mph 0mph 6.5mph
Raffica: 26.7mph - -
Direzione- - East
Pressione: 30.1 in 29.9 in -
Precipitazioni: 0.59 in    
 
 
Tabulato Dati per Luglio 06, 2022
Ora Temperatura Dew Point Pressione Direzione Velocità vento Raffica Umidità Intensità pioggia (oraria) Info solare Situazione
00:04 77 °F 66.2 °F 29.9 in East 7.5 mph 11.8 mph 70% 0 in 0.00 W/m2 unknown
00:09 77 °F 66.2 °F 30 in East 7.5 mph 10.6 mph 70% 0 in 0.00 W/m2 unknown
00:14 77 °F 66.2 °F 30 in East 6.8 mph 10.6 mph 70% 0 in 0.00 W/m2 unknown
00:19 77 °F 66.2 °F 30 in ENE 8.1 mph 11.8 mph 69% 0 in 0.00 W/m2 unknown
00:24 77 °F 66.2 °F 30 in ENE 5.6 mph 11.8 mph 69% 0 in 0.00 W/m2 unknown
00:29 77 °F 66.2 °F 30 in ENE 6.2 mph 8.1 mph 70% 0 in 0.00 W/m2 unknown
00:34 77 °F 66.2 °F 30 in ENE 6.8 mph 8.7 mph 70% 0 in 0.00 W/m2 unknown
00:39 77 °F 66.2 °F 30 in ENE 6.8 mph 9.3 mph 70% 0 in 0.00 W/m2 unknown
00:44 75.2 °F 66.2 °F 30 in ENE 5.6 mph 8.7 mph 71% 0 in 0.00 W/m2 unknown
00:49 75.2 °F 66.2 °F 30 in ENE 5.6 mph 8.1 mph 71% 0 in 0.00 W/m2 unknown
00:54 75.2 °F 66.2 °F 30 in ENE 6.2 mph 8.1 mph 71% 0 in 0.00 W/m2 unknown
00:59 75.2 °F 66.2 °F 30 in ENE 5 mph 8.1 mph 72% 0 in 0.00 W/m2 unknown
01:04 75.2 °F 64.4 °F 30 in ENE 5 mph 6.8 mph 71% 0 in 0.00 W/m2 unknown
01:09 75.2 °F 66.2 °F 30 in ENE 5.6 mph 6.8 mph 72% 0 in 0.00 W/m2 unknown
01:14 75.2 °F 66.2 °F 30 in ENE 5 mph 6.8 mph 72% 0 in 0.00 W/m2 unknown
01:19 75.2 °F 64.4 °F 30 in ENE 5 mph 6.8 mph 72% 0 in 0.00 W/m2 unknown
01:24 75.2 °F 66.2 °F 30 in ENE 4.3 mph 6.8 mph 73% 0 in 0.00 W/m2 unknown
01:29 75.2 °F 66.2 °F 30 in ENE 6.2 mph 9.3 mph 73% 0 in 0.00 W/m2 unknown
01:34 75.2 °F 66.2 °F 30 in ENE 6.2 mph 8.7 mph 73% 0 in 0.00 W/m2 unknown
01:39 75.2 °F 64.4 °F 30 in ENE 6.2 mph 8.1 mph 73% 0 in 0.00 W/m2 unknown
01:44 73.4 °F 64.4 °F 30 in ENE 6.8 mph 9.3 mph 73% 0 in 0.00 W/m2 unknown
01:49 73.4 °F 64.4 °F 30 in ENE 6.8 mph 10.6 mph 73% 0 in 0.00 W/m2 unknown
01:54 75.2 °F 64.4 °F 30 in ENE 8.1 mph 10.6 mph 73% 0 in 0.00 W/m2 unknown
01:59 75.2 °F 64.4 °F 30 in ENE 8.1 mph 11.8 mph 72% 0 in 0.00 W/m2 unknown
02:04 75.2 °F 64.4 °F 30 in East 8.7 mph 11.8 mph 71% 0 in 0.00 W/m2 unknown
02:09 75.2 °F 64.4 °F 30 in ENE 8.7 mph 13 mph 70% 0 in 0.00 W/m2 unknown
02:14 75.2 °F 64.4 °F 30 in ENE 9.3 mph 13 mph 69% 0 in 0.00 W/m2 unknown
02:19 75.2 °F 64.4 °F 30 in ENE 13 mph 21.7 mph 69% 0 in 0.00 W/m2 unknown
02:24 75.2 °F 64.4 °F 30 in ENE 13 mph 21.7 mph 68% 0 in 0.00 W/m2 unknown
02:29 75.2 °F 64.4 °F 30 in ENE 18.6 mph 25.5 mph 67% 0 in 0.00 W/m2 unknown
02:34 75.2 °F 62.6 °F 30 in ENE 18.6 mph 25.5 mph 64% 0 in 0.00 W/m2 unknown
02:39 75.2 °F 62.6 °F 30 in ENE 14.9 mph 24.9 mph 64% 0 in 0.00 W/m2 unknown
02:44 75.2 °F 62.6 °F 30 in ENE 13.7 mph 21.7 mph 64% 0 in 0.00 W/m2 unknown
02:49 75.2 °F 62.6 °F 30 in ENE 13 mph 18.6 mph 64% 0 in 0.00 W/m2 unknown
02:54 75.2 °F 62.6 °F 30 in ENE 13.7 mph 19.9 mph 65% 0 in 0.00 W/m2 unknown
02:59 75.2 °F 62.6 °F 30 in ENE 16.2 mph 23 mph 66% 0 in 0.00 W/m2 unknown
03:04 73.4 °F 62.6 °F 30 in ENE 18 mph 24.2 mph 69% 0 in 0.00 W/m2 unknown
03:09 73.4 °F 62.6 °F 30 in ENE 13.7 mph 24.2 mph 71% 0 in 0.00 W/m2 unknown
03:14 73.4 °F 64.4 °F 30 in East 14.9 mph 23 mph 73% 0 in 0.00 W/m2 unknown
03:19 73.4 °F 64.4 °F 30 in ENE 14.9 mph 21.7 mph 74% 0 in 0.00 W/m2 unknown
03:24 73.4 °F 64.4 °F 30 in ENE 13 mph 21.7 mph 75% 0 in 0.00 W/m2 unknown
03:29 71.6 °F 64.4 °F 30 in ENE 14.3 mph 21.7 mph 75% 0 in 0.00 W/m2 unknown
03:34 71.6 °F 64.4 °F 30 in ENE 12.4 mph 21.7 mph 76% 0 in 0.00 W/m2 unknown
03:39 71.6 °F 64.4 °F 30 in ENE 9.9 mph 18 mph 76% 0 in 0.00 W/m2 unknown
03:44 71.6 °F 64.4 °F 30 in ENE 13 mph 16.2 mph 76% 0 in 0.00 W/m2 unknown
03:49 71.6 °F 64.4 °F 30 in East 11.8 mph 16.2 mph 76% 0 in 0.00 W/m2 unknown
03:54 71.6 °F 64.4 °F 30 in ENE 14.3 mph 20.5 mph 76% 0 in 0.00 W/m2 unknown
03:59 71.6 °F 64.4 °F 30 in East 11.8 mph 21.1 mph 76% 0 in 0.00 W/m2 unknown
04:04 71.6 °F 64.4 °F 30 in ENE 13.7 mph 18.6 mph 76% 0 in 0.00 W/m2 unknown
04:09 71.6 °F 64.4 °F 30 in ENE 12.4 mph 18.6 mph 76% 0 in 0.00 W/m2 unknown
04:14 71.6 °F 64.4 °F 30 in ENE 12.4 mph 18.6 mph 76% 0 in 0.00 W/m2 unknown
04:19 71.6 °F 64.4 °F 30 in ENE 11.8 mph 18 mph 76% 0 in 0.00 W/m2 unknown
04:24 71.6 °F 64.4 °F 30 in ENE 11.8 mph 16.2 mph 76% 0 in 0.00 W/m2 unknown
04:29 71.6 °F 64.4 °F 30 in East 15.5 mph 21.7 mph 76% 0 in 0.00 W/m2 unknown
04:34 71.6 °F 64.4 °F 30 in ENE 13.7 mph 21.7 mph 75% 0 in 0.00 W/m2 unknown
04:39 71.6 °F 62.6 °F 30 in ENE 12.4 mph 19.9 mph 75% 0 in 0.00 W/m2 unknown
04:44 71.6 °F 62.6 °F 30 in ENE 13 mph 21.7 mph 75% 0 in 0.00 W/m2 unknown
04:49 71.6 °F 64.4 °F 30 in ENE 13 mph 21.7 mph 76% 0 in 0.00 W/m2 unknown
04:54 71.6 °F 64.4 °F 30 in ENE 13 mph 21.7 mph 76% 0 in 0.00 W/m2 unknown
04:59 71.6 °F 64.4 °F 30 in ENE 13.7 mph 18.6 mph 76% 0 in 0.00 W/m2 unknown
05:04 71.6 °F 64.4 °F 30 in ENE 12.4 mph 18.6 mph 76% 0 in 0.00 W/m2 unknown
05:09 71.6 °F 64.4 °F 30 in NE 12.4 mph 18 mph 76% 0 in 0.00 W/m2 unknown
05:14 71.6 °F 62.6 °F 30 in ENE 11.8 mph 18.6 mph 76% 0 in 0.00 W/m2 unknown
05:19 71.6 °F 64.4 °F 30 in ENE 9.9 mph 18 mph 77% 0 in 0.00 W/m2 unknown
05:24 71.6 °F 64.4 °F 30 in ENE 12.4 mph 16.2 mph 77% 0 in 0.00 W/m2 unknown
05:29 71.6 °F 64.4 °F 30 in East 13 mph 19.9 mph 77% 0 in 0.00 W/m2 unknown
05:34 71.6 °F 64.4 °F 30 in East 13 mph 19.9 mph 77% 0 in 0.00 W/m2 unknown
05:39 71.6 °F 64.4 °F 30 in East 11.8 mph 16.2 mph 77% 0 in 0.00 W/m2 unknown
05:44 71.6 °F 64.4 °F 30 in East 8.7 mph 16.2 mph 77% 0 in 0.00 W/m2 unknown
05:49 71.6 °F 64.4 °F 30 in East 8.1 mph 14.3 mph 77% 0 in 0.00 W/m2 unknown
05:54 71.6 °F 64.4 °F 30 in ENE 8.1 mph 12.4 mph 77% 0 in 9.00 W/m2 unknown
05:59 71.6 °F 64.4 °F 30 in East 9.3 mph 13 mph 78% 0 in 12.00 W/m2 unknown
06:04 71.6 °F 64.4 °F 30 in East 9.9 mph 14.3 mph 78% 0 in 14.00 W/m2 unknown
06:09 71.6 °F 64.4 °F 30 in East 9.9 mph 14.3 mph 78% 0 in 14.00 W/m2 unknown
06:14 71.6 °F 64.4 °F 30 in East 8.1 mph 13 mph 78% 0 in 19.00 W/m2 unknown
06:19 71.6 °F 64.4 °F 30 in East 9.3 mph 14.3 mph 78% 0 in 26.00 W/m2 unknown
06:24 71.6 °F 64.4 °F 30 in East 9.9 mph 14.3 mph 77% 0 in 26.00 W/m2 unknown
06:29 71.6 °F 64.4 °F 30 in East 10.6 mph 14.9 mph 77% 0 in 23.00 W/m2 unknown
06:34 71.6 °F 64.4 °F 30 in East 9.9 mph 14.9 mph 77% 0 in 21.00 W/m2 unknown
06:39 71.6 °F 64.4 °F 30 in East 9.3 mph 14.9 mph 76% 0 in 14.00 W/m2 unknown
06:44 71.6 °F 64.4 °F 30 in NE 8.1 mph 14.3 mph 76% 0 in 5.00 W/m2 unknown
06:49 71.6 °F 64.4 °F 30 in NNW 5.6 mph 11.8 mph 78% 0 in 0.00 W/m2 unknown
06:54 71.6 °F 66.2 °F 30 in NW 9.3 mph 13 mph 80% 0.01 in 0.00 W/m2 unknown
06:59 71.6 °F 66.2 °F 30.1 in NNW 11.2 mph 19.9 mph 82% 0.04 in 0.00 W/m2 unknown
07:04 71.6 °F 64.4 °F 30.1 in East 17.4 mph 26.7 mph 83% 0.13 in 0.00 W/m2 unknown
07:09 69.8 °F 64.4 °F 30 in East 16.8 mph 23 mph 84% 0.33 in 0.00 W/m2 unknown
07:14 69.8 °F 64.4 °F 30 in ESE 9.9 mph 23 mph 85% 0.43 in 5.00 W/m2 unknown
07:19 68 °F 64.4 °F 30 in ESE 8.1 mph 13 mph 87% 0.5 in 9.00 W/m2 unknown
07:24 68 °F 64.4 °F 30 in East 8.1 mph 11.8 mph 87% 0.56 in 12.00 W/m2 unknown
07:29 68 °F 64.4 °F 30 in East 8.7 mph 13 mph 88% 0.59 in 14.00 W/m2 unknown
07:34 68 °F 64.4 °F 30 in East 9.9 mph 13 mph 88% 0.59 in 16.00 W/m2 unknown
07:39 68 °F 64.4 °F 30 in East 8.1 mph 13 mph 88% 0.59 in 30.00 W/m2 unknown
07:44 68 °F 64.4 °F 30 in East 6.8 mph 11.8 mph 88% 0.59 in 53.00 W/m2 unknown
07:49 68 °F 64.4 °F 30 in ENE 6.8 mph 9.3 mph 88% 0.59 in 65.00 W/m2 unknown
07:54 68 °F 64.4 °F 30 in ENE 5 mph 8.7 mph 89% 0.59 in 149.00 W/m2 unknown
07:59 68 °F 64.4 °F 30 in ENE 6.2 mph 9.3 mph 89% 0.58 in 178.00 W/m2 unknown
08:04 68 °F 66.2 °F 30 in ENE 6.2 mph 8.7 mph 89% 0.55 in 221.00 W/m2 unknown
08:09 69.8 °F 66.2 °F 30 in ENE 5 mph 8.1 mph 89% 0.49 in 288.00 W/m2 unknown
08:14 71.6 °F 68 °F 30 in NE 5 mph 8.1 mph 89% 0.3 in 294.00 W/m2 unknown
08:19 71.6 °F 68 °F 30 in ENE 8.1 mph 9.9 mph 88% 0.18 in 301.00 W/m2 unknown
08:24 71.6 °F 68 °F 30 in ENE 8.7 mph 11.2 mph 88% 0.09 in 315.00 W/m2 unknown
08:29 71.6 °F 68 °F 30 in ENE 8.7 mph 11.8 mph 86% 0.02 in 329.00 W/m2 unknown
08:34 73.4 °F 68 °F 30 in East 5.6 mph 11.8 mph 85% 0 in 334.00 W/m2 unknown
08:39 73.4 °F 68 °F 30 in ESE 5 mph 6.8 mph 84% 0 in 348.00 W/m2 unknown
08:44 73.4 °F 68 °F 30 in East 7.5 mph 9.3 mph 83% 0 in 364.00 W/m2 unknown
08:49 73.4 °F 68 °F 30 in ESE 6.8 mph 10.6 mph 82% 0 in 380.00 W/m2 unknown
08:54 73.4 °F 68 °F 30 in East 8.7 mph 11.8 mph 82% 0 in 396.00 W/m2 unknown
08:59 73.4 °F 68 °F 30 in East 6.8 mph 11.8 mph 81% 0 in 403.00 W/m2 unknown
09:04 75.2 °F 68 °F 30.1 in ESE 5.6 mph 8.1 mph 80% 0 in 417.00 W/m2 unknown
09:09 75.2 °F 68 °F 30.1 in East 6.2 mph 9.3 mph 79% 0 in 429.00 W/m2 unknown
09:14 75.2 °F 68 °F 30.1 in East 6.2 mph 9.3 mph 78% 0 in 443.00 W/m2 unknown
09:19 75.2 °F 68 °F 30.1 in ESE 6.8 mph 9.3 mph 78% 0 in 461.00 W/m2 unknown
09:24 75.2 °F 68 °F 30.1 in East 6.8 mph 9.3 mph 77% 0 in 475.00 W/m2 unknown
09:29 77 °F 68 °F 30.1 in East 7.5 mph 10.6 mph 76% 0 in 487.00 W/m2 unknown
09:34 77 °F 68 °F 30.1 in East 7.5 mph 10.6 mph 74% 0 in 501.00 W/m2 unknown
09:39 77 °F 68 °F 30.1 in East 6.8 mph 9.3 mph 74% 0 in 510.00 W/m2 unknown
09:44 77 °F 68 °F 30.1 in East 5 mph 8.1 mph 75% 0 in 527.00 W/m2 unknown
09:49 77 °F 68 °F 30.1 in East 6.8 mph 8.7 mph 74% 0 in 540.00 W/m2 unknown
09:54 77 °F 68 °F 30.1 in East 6.8 mph 9.3 mph 74% 0 in 555.00 W/m2 unknown
09:59 78.8 °F 68 °F 30.1 in ENE 9.3 mph 11.8 mph 72% 0 in 568.00 W/m2 unknown
10:04 78.8 °F 68 °F 30 in East 9.3 mph 14.3 mph 69% 0 in 578.00 W/m2 unknown
10:09 78.8 °F 68 °F 30 in ENE 9.3 mph 14.3 mph 69% 0 in 587.00 W/m2 unknown
10:14 78.8 °F 68 °F 30 in ENE 9.9 mph 14.3 mph 69% 0 in 601.00 W/m2 unknown
10:19 78.8 °F 68 °F 30 in ENE 8.7 mph 14.3 mph 67% 0 in 615.00 W/m2 unknown
10:24 78.8 °F 68 °F 30.1 in ENE 8.1 mph 11.8 mph 68% 0 in 624.00 W/m2 unknown
10:29 80.6 °F 68 °F 30.1 in East 8.7 mph 10.6 mph 68% 0 in 638.00 W/m2 unknown
10:34 80.6 °F 68 °F 30.1 in ENE 7.5 mph 9.9 mph 67% 0 in 649.00 W/m2 unknown
10:39 80.6 °F 68 °F 30.1 in ENE 7.5 mph 10.6 mph 67% 0 in 659.00 W/m2 unknown
10:44 80.6 °F 68 °F 30.1 in East 6.8 mph 9.9 mph 65% 0 in 670.00 W/m2 unknown
10:49 80.6 °F 68 °F 30.1 in ESE 6.2 mph 8.7 mph 66% 0 in 680.00 W/m2 unknown
10:54 80.6 °F 68 °F 30 in East 7.5 mph 9.3 mph 66% 0 in 691.00 W/m2 unknown
10:59 80.6 °F 68 °F 30 in East 8.1 mph 10.6 mph 64% 0 in 700.00 W/m2 unknown
11:04 80.6 °F 68 °F 30 in East 6.2 mph 9.9 mph 64% 0 in 710.00 W/m2 unknown
11:09 82.4 °F 68 °F 30 in East 6.8 mph 10.6 mph 64% 0 in 721.00 W/m2 unknown
11:14 82.4 °F 68 °F 30 in ENE 6.8 mph 9.9 mph 62% 0 in 729.00 W/m2 unknown
11:19 82.4 °F 69.8 °F 30 in ENE 6.2 mph 8.7 mph 65% 0 in 738.00 W/m2 unknown
11:24 82.4 °F 69.8 °F 30 in ESE 7.5 mph 9.3 mph 64% 0 in 744.00 W/m2 unknown
11:29 82.4 °F 68 °F 30 in ESE 6.2 mph 8.7 mph 61% 0 in 754.00 W/m2 unknown
11:34 82.4 °F 68 °F 30 in East 6.2 mph 10.6 mph 61% 0 in 763.00 W/m2 unknown
11:39 82.4 °F 68 °F 30 in East 6.2 mph 9.9 mph 60% 0 in 770.00 W/m2 unknown
11:44 82.4 °F 68 °F 30 in ENE 7.5 mph 9.3 mph 62% 0 in 779.00 W/m2 unknown
11:49 84.2 °F 69.8 °F 30 in ENE 6.2 mph 8.7 mph 62% 0 in 786.00 W/m2 unknown
11:54 84.2 °F 69.8 °F 30 in East 5.6 mph 9.3 mph 62% 0 in 793.00 W/m2 unknown
11:59 84.2 °F 68 °F 30 in ENE 8.7 mph 13 mph 60% 0 in 798.00 W/m2 unknown
12:04 84.2 °F 68 °F 30 in ESE 8.7 mph 13 mph 59% 0 in 809.00 W/m2 unknown
12:09 84.2 °F 68 °F 30 in East 6.8 mph 13 mph 59% 0 in 817.00 W/m2 unknown
12:14 84.2 °F 68 °F 30 in East 6.2 mph 8.7 mph 57% 0 in 823.00 W/m2 unknown
12:19 84.2 °F 68 °F 30 in East 5 mph 8.1 mph 56% 0 in 826.00 W/m2 unknown
12:24 86 °F 68 °F 30 in East 5 mph 8.1 mph 57% 0 in 831.00 W/m2 unknown
12:29 86 °F 68 °F 30 in ESE 6.8 mph 8.1 mph 57% 0 in 835.00 W/m2 unknown
12:34 84.2 °F 68 °F 30 in ESE 5 mph 8.1 mph 57% 0 in 837.00 W/m2 unknown
12:39 86 °F 69.8 °F 30 in ESE 4.3 mph 6.8 mph 59% 0 in 844.00 W/m2 unknown
12:44 86 °F 69.8 °F 30 in ESE 5.6 mph 8.7 mph 58% 0 in 849.00 W/m2 unknown
12:49 86 °F 68 °F 30 in ESE 6.8 mph 9.3 mph 57% 0 in 853.00 W/m2 unknown
12:54 86 °F 68 °F 30 in ENE 7.5 mph 9.3 mph 56% 0 in 853.00 W/m2 unknown
12:59 86 °F 68 °F 30 in ESE 5.6 mph 8.7 mph 56% 0 in 854.00 W/m2 unknown
13:04 86 °F 68 °F 30 in SE 6.2 mph 8.1 mph 56% 0 in 858.00 W/m2 unknown
13:09 86 °F 68 °F 30 in South 6.8 mph 9.3 mph 56% 0 in 860.00 W/m2 unknown
13:14 86 °F 68 °F 30 in ESE 6.2 mph 8.7 mph 55% 0 in 863.00 W/m2 unknown
13:19 86 °F 68 °F 30 in ESE 5 mph 8.1 mph 54% 0 in 865.00 W/m2 unknown
13:24 86 °F 66.2 °F 30 in ESE 5.6 mph 8.1 mph 53% 0 in 868.00 W/m2 unknown
13:29 86 °F 68 °F 30 in East 6.2 mph 8.1 mph 55% 0 in 868.00 W/m2 unknown
13:34 86 °F 68 °F 30 in East 5 mph 8.1 mph 55% 0 in 868.00 W/m2 unknown
13:39 86 °F 69.8 °F 30 in ESE 4.3 mph 6.8 mph 56% 0 in 868.00 W/m2 unknown
13:44 86 °F 68 °F 30 in ESE 6.8 mph 8.1 mph 56% 0 in 867.00 W/m2 unknown
13:49 86 °F 68 °F 30 in ENE 7.5 mph 9.3 mph 55% 0 in 868.00 W/m2 unknown
13:54 87.8 °F 68 °F 30 in NE 6.2 mph 8.7 mph 54% 0 in 867.00 W/m2 unknown
13:59 87.8 °F 68 °F 30 in NNE 5 mph 8.1 mph 54% 0 in 867.00 W/m2 unknown
14:04 87.8 °F 68 °F 30 in ESE 4.3 mph 6.2 mph 54% 0 in 863.00 W/m2 unknown
14:09 86 °F 68 °F 30 in SE 4.3 mph 6.8 mph 55% 0 in 858.00 W/m2 unknown
14:14 87.8 °F 69.8 °F 30 in ESE 3.7 mph 6.8 mph 57% 0 in 858.00 W/m2 unknown
14:19 87.8 °F 69.8 °F 30 in ENE 4.3 mph 6.2 mph 55% 0 in 856.00 W/m2 unknown
14:24 87.8 °F 68 °F 30 in East 5.6 mph 8.1 mph 54% 0 in 860.00 W/m2 unknown
14:29 87.8 °F 69.8 °F 30 in SE 4.3 mph 8.1 mph 55% 0 in 854.00 W/m2 unknown
14:34 87.8 °F 68 °F 30 in South 3.1 mph 6.8 mph 53% 0 in 849.00 W/m2 unknown
14:39 87.8 °F 69.8 °F 30 in ESE 4.3 mph 6.2 mph 54% 0 in 844.00 W/m2 unknown
14:44 87.8 °F 69.8 °F 30 in East 4.3 mph 6.2 mph 53% 0 in 840.00 W/m2 unknown
14:49 87.8 °F 69.8 °F 30 in ESE 3.1 mph 5 mph 54% 0 in 838.00 W/m2 unknown
14:54 87.8 °F 68 °F 30 in ESE 4.3 mph 6.8 mph 53% 0 in 833.00 W/m2 unknown
14:59 87.8 °F 68 °F 30 in ENE 5 mph 8.1 mph 52% 0 in 826.00 W/m2 unknown
15:04 87.8 °F 69.8 °F 30 in NNE 5 mph 8.1 mph 54% 0 in 821.00 W/m2 unknown
15:09 89.6 °F 69.8 °F 30 in NNE 3.1 mph 8.1 mph 54% 0 in 817.00 W/m2 unknown
15:14 89.6 °F 69.8 °F 30 in ENE 5.6 mph 8.1 mph 54% 0 in 810.00 W/m2 unknown
15:19 89.6 °F 68 °F 30 in East 5 mph 8.1 mph 51% 0 in 800.00 W/m2 unknown
15:24 87.8 °F 69.8 °F 30 in East 5 mph 6.2 mph 54% 0 in 796.00 W/m2 unknown
15:29 89.6 °F 68 °F 30 in ENE 5.6 mph 9.3 mph 50% 0 in 791.00 W/m2 unknown
15:34 89.6 °F 68 °F 30 in ENE 5 mph 8.7 mph 49% 0 in 780.00 W/m2 unknown
15:39 89.6 °F 68 °F 30 in NE 4.3 mph 6.8 mph 50% 0 in 773.00 W/m2 unknown
15:44 87.8 °F 68 °F 30 in ENE 4.3 mph 6.8 mph 51% 0 in 766.00 W/m2 unknown
15:49 89.6 °F 68 °F 30 in East 5 mph 6.8 mph 51% 0 in 754.00 W/m2 unknown
15:54 89.6 °F 68 °F 30 in ESE 3.1 mph 6.8 mph 50% 0 in 749.00 W/m2 unknown
15:59 89.6 °F 69.8 °F 30 in East 3.7 mph 6.8 mph 52% 0 in 738.00 W/m2 unknown
16:04 89.6 °F 69.8 °F 30 in East 5.6 mph 6.8 mph 51% 0 in 731.00 W/m2 unknown
16:09 89.6 °F 68 °F 30 in ESE 3.1 mph 6.2 mph 50% 0 in 724.00 W/m2 unknown
16:14 89.6 °F 68 °F 30 in SSE 2.5 mph 5 mph 50% 0 in 717.00 W/m2 unknown
16:19 89.6 °F 68 °F 30 in ESE 6.2 mph 6.8 mph 50% 0 in 703.00 W/m2 unknown
16:24 89.6 °F 68 °F 30 in ESE 5 mph 6.8 mph 51% 0 in 694.00 W/m2 unknown
16:29 89.6 °F 69.8 °F 30 in East 5 mph 8.1 mph 53% 0 in 689.00 W/m2 unknown
16:34 89.6 °F 68 °F 30 in East 5 mph 8.1 mph 51% 0 in 677.00 W/m2 unknown
16:39 89.6 °F 69.8 °F 30 in ESE 3.1 mph 6.8 mph 52% 0 in 666.00 W/m2 unknown
16:44 89.6 °F 68 °F 30 in ESE 3.7 mph 6.8 mph 49% 0 in 652.00 W/m2 unknown
16:49 89.6 °F 66.2 °F 30 in SE 5.6 mph 8.1 mph 48% 0 in 643.00 W/m2 unknown
16:54 89.6 °F 66.2 °F 30 in South 5 mph 8.1 mph 48% 0 in 635.00 W/m2 unknown
16:59 89.6 °F 68 °F 30 in South 3.7 mph 6.8 mph 48% 0 in 624.00 W/m2 unknown
17:04 89.6 °F 68 °F 30 in SE 4.3 mph 6.2 mph 48% 0 in 613.00 W/m2 unknown
17:09 89.6 °F 68 °F 30 in ESE 5 mph 8.1 mph 50% 0 in 596.00 W/m2 unknown
17:14 89.6 °F 68 °F 30 in SSE 4.3 mph 8.1 mph 49% 0 in 587.00 W/m2 unknown
17:19 89.6 °F 68 °F 30 in ESE 6.2 mph 8.1 mph 49% 0 in 570.00 W/m2 unknown
17:24 89.6 °F 66.2 °F 30 in SE 6.2 mph 8.1 mph 48% 0 in 555.00 W/m2 unknown
17:29 89.6 °F 68 °F 30 in ESE 3.1 mph 8.1 mph 49% 0 in 547.00 W/m2 unknown
17:34 89.6 °F 68 °F 30 in ESE 5 mph 6.2 mph 49% 0 in 529.00 W/m2 unknown
17:39 89.6 °F 66.2 °F 30 in ESE 3.7 mph 6.2 mph 48% 0 in 520.00 W/m2 unknown
17:44 89.6 °F 66.2 °F 30 in East 3.7 mph 6.2 mph 48% 0 in 503.00 W/m2 unknown
17:49 89.6 °F 68 °F 30 in ESE 3.7 mph 5 mph 49% 0 in 489.00 W/m2 unknown
17:54 89.6 °F 66.2 °F 29.9 in ESE 1.9 mph 5 mph 48% 0 in 471.00 W/m2 unknown
17:59 89.6 °F 66.2 °F 29.9 in East 5.6 mph 8.1 mph 47% 0 in 462.00 W/m2 unknown
18:04 89.6 °F 66.2 °F 29.9 in ESE 5.6 mph 8.1 mph 47% 0 in 448.00 W/m2 unknown
18:09 89.6 °F 66.2 °F 29.9 in ESE 5 mph 8.1 mph 48% 0 in 432.00 W/m2 unknown
18:14 89.6 °F 68 °F 29.9 in SE 4.3 mph 6.8 mph 49% 0 in 420.00 W/m2 unknown
18:19 89.6 °F 66.2 °F 29.9 in ESE 3.1 mph 8.1 mph 48% 0 in 406.00 W/m2 unknown
18:24 89.6 °F 68 °F 29.9 in ESE 4.3 mph 8.1 mph 49% 0 in 390.00 W/m2 unknown
18:29 89.6 °F 68 °F 29.9 in East 4.3 mph 8.1 mph 49% 0 in 374.00 W/m2 unknown
18:34 89.6 °F 68 °F 29.9 in East 5 mph 6.8 mph 50% 0 in 362.00 W/m2 unknown
18:39 89.6 °F 68 °F 29.9 in East 6.2 mph 8.1 mph 51% 0 in 345.00 W/m2 unknown
18:44 89.6 °F 68 °F 29.9 in East 6.2 mph 8.1 mph 50% 0 in 332.00 W/m2 unknown
18:49 87.8 °F 68 °F 29.9 in ESE 4.3 mph 8.1 mph 51% 0 in 315.00 W/m2 unknown
18:54 87.8 °F 66.2 °F 29.9 in ESE 3.7 mph 6.2 mph 49% 0 in 283.00 W/m2 unknown
18:59 89.6 °F 66.2 °F 29.9 in SE 2.5 mph 5 mph 48% 0 in 271.00 W/m2 unknown
19:04 89.6 °F 68 °F 29.9 in SE 3.1 mph 3.7 mph 49% 0 in 267.00 W/m2 unknown
19:09 89.6 °F 68 °F 29.9 in SSE 2.5 mph 3.7 mph 50% 0 in 260.00 W/m2 unknown
19:14 89.6 °F 68 °F 29.9 in SSE 2.5 mph 5 mph 50% 0 in 244.00 W/m2 unknown
19:19 89.6 °F 68 °F 29.9 in South 5 mph 6.8 mph 50% 0 in 230.00 W/m2 unknown
19:24 87.8 °F 68 °F 29.9 in SSW 4.3 mph 6.8 mph 50% 0 in 213.00 W/m2 unknown
19:29 87.8 °F 68 °F 29.9 in SSW 4.3 mph 6.2 mph 51% 0 in 197.00 W/m2 unknown
19:34 87.8 °F 68 °F 29.9 in SSW 5 mph 6.8 mph 51% 0 in 181.00 W/m2 unknown
19:39 87.8 °F 68 °F 29.9 in SSW 4.3 mph 6.8 mph 52% 0 in 162.00 W/m2 unknown
19:44 87.8 °F 68 °F 29.9 in SSE 1.9 mph 5 mph 52% 0 in 148.00 W/m2 unknown
19:49 87.8 °F 68 °F 29.9 in SSE 2.5 mph 5 mph 52% 0 in 137.00 W/m2 unknown
19:54 87.8 °F 68 °F 29.9 in SSE 1.9 mph 5 mph 52% 0 in 125.00 W/m2 unknown
19:59 86 °F 68 °F 29.9 in SSE 2.5 mph 3.7 mph 53% 0 in 109.00 W/m2 unknown
20:04 86 °F 68 °F 29.9 in SSE 3.1 mph 3.7 mph 53% 0 in 93.00 W/m2 unknown
20:09 86 °F 66.2 °F 29.9 in SSE 1.9 mph 3.7 mph 53% 0 in 83.00 W/m2 unknown
20:14 86 °F 68 °F 29.9 in SSE 1.9 mph 3.7 mph 55% 0 in 54.00 W/m2 unknown
20:19 86 °F 68 °F 29.9 in SE 1.9 mph 3.7 mph 56% 0 in 28.00 W/m2 unknown
20:24 86 °F 68 °F 29.9 in SE 1.9 mph 3.7 mph 58% 0 in 25.00 W/m2 unknown
20:29 84.2 °F 68 °F 29.9 in ESE 1.9 mph 3.1 mph 59% 0 in 23.00 W/m2 unknown
20:34 84.2 °F 68 °F 29.9 in SE 5 mph 6.8 mph 60% 0 in 21.00 W/m2 unknown
20:39 84.2 °F 68 °F 29.9 in SE 5 mph 6.8 mph 60% 0 in 18.00 W/m2 unknown
20:44 84.2 °F 68 °F 29.9 in SSE 3.7 mph 6.8 mph 60% 0 in 14.00 W/m2 unknown
20:49 82.4 °F 68 °F 29.9 in SE 3.7 mph 6.2 mph 60% 0 in 12.00 W/m2 unknown
20:54 82.4 °F 68 °F 29.9 in SE 3.7 mph 6.2 mph 60% 0 in 9.00 W/m2 unknown
20:59 82.4 °F 68 °F 29.9 in SE 3.7 mph 6.2 mph 60% 0 in 7.00 W/m2 unknown
21:04 82.4 °F 66.2 °F 29.9 in SE 3.7 mph 5 mph 60% 0 in 5.00 W/m2 unknown
21:09 82.4 °F 68 °F 29.9 in SE 2.5 mph 3.7 mph 62% 0 in 0.00 W/m2 unknown
21:14 82.4 °F 68 °F 29.9 in SE 3.1 mph 3.7 mph 62% 0 in 0.00 W/m2 unknown
21:19 80.6 °F 66.2 °F 29.9 in SE 2.5 mph 3.7 mph 62% 0 in 0.00 W/m2 unknown
21:24 80.6 °F 66.2 °F 30 in ESE 2.5 mph 5 mph 62% 0 in 0.00 W/m2 unknown
21:29 80.6 °F 66.2 °F 30 in ESE 3.7 mph 5 mph 62% 0 in 0.00 W/m2 unknown
21:34 80.6 °F 66.2 °F 30 in SSE 3.1 mph 5 mph 62% 0 in 0.00 W/m2 unknown
21:39 80.6 °F 66.2 °F 30 in SSE 1.9 mph 5 mph 62% 0 in 0.00 W/m2 unknown
21:44 80.6 °F 66.2 °F 30 in SE 2.5 mph 3.7 mph 61% 0 in 0.00 W/m2 unknown
21:49 80.6 °F 66.2 °F 30 in SE 2.5 mph 3.7 mph 61% 0 in 0.00 W/m2 unknown
21:54 80.6 °F 66.2 °F 30 in SE 2.5 mph 3.7 mph 62% 0 in 0.00 W/m2 unknown
21:59 78.8 °F 66.2 °F 30 in ESE 2.5 mph 3.7 mph 63% 0 in 0.00 W/m2 unknown
22:04 78.8 °F 66.2 °F 30 in ESE 1.9 mph 3.7 mph 65% 0 in 0.00 W/m2 unknown
22:09 78.8 °F 66.2 °F 30 in East 1.9 mph 3.7 mph 66% 0 in 0.00 W/m2 unknown
22:14 78.8 °F 66.2 °F 30 in East 1.2 mph 3.1 mph 67% 0 in 0.00 W/m2 unknown
22:19 78.8 °F 66.2 °F 30 in East 1.2 mph 2.5 mph 67% 0 in 0.00 W/m2 unknown
22:24 78.8 °F 66.2 °F 30 in East 1.9 mph 2.5 mph 68% 0 in 0.00 W/m2 unknown
22:29 77 °F 66.2 °F 30 in East 1.2 mph 2.5 mph 68% 0 in 0.00 W/m2 unknown
22:34 77 °F 66.2 °F 30 in East 0.6 mph 1.9 mph 70% 0 in 0.00 W/m2 unknown
22:39 77 °F 66.2 °F 30 in East 0.6 mph 1.2 mph 70% 0 in 0.00 W/m2 unknown
22:44 77 °F 66.2 °F 30 in East 0.6 mph 1.2 mph 70% 0 in 0.00 W/m2 unknown
22:49 77 °F 66.2 °F 30 in Calm   1.2 mph 70% 0 in 0.00 W/m2 unknown
22:54 77 °F 66.2 °F 30 in Calm     70% 0 in 0.00 W/m2 unknown
22:59 77 °F 66.2 °F 30 in Calm     70% 0 in 0.00 W/m2 unknown
23:04 77 °F 66.2 °F 30 in Calm     70% 0 in 0.00 W/m2 unknown
23:09 77 °F 66.2 °F 30 in NNE 1.9 mph 3.7 mph 70% 0 in 0.00 W/m2 unknown
23:14 77 °F 66.2 °F 30 in NE 2.5 mph 3.7 mph 71% 0 in 0.00 W/m2 unknown
23:19 77 °F 66.2 °F 30 in NE 1.2 mph 3.7 mph 71% 0 in 0.00 W/m2 unknown
23:24 77 °F 66.2 °F 30 in NE 0.6 mph 3.1 mph 71% 0 in 0.00 W/m2 unknown
23:29 77 °F 66.2 °F 30 in NE 1.2 mph 2.5 mph 72% 0 in 0.00 W/m2 unknown
23:34 77 °F 66.2 °F 30 in NE 1.9 mph 2.5 mph 72% 0 in 0.00 W/m2 unknown
23:39 75.2 °F 66.2 °F 30 in NE 1.9 mph 2.5 mph 72% 0 in 0.00 W/m2 unknown
23:44 75.2 °F 66.2 °F 30 in ENE 3.1 mph 3.7 mph 71% 0 in 0.00 W/m2 unknown
23:49 75.2 °F 66.2 °F 30 in ENE 2.5 mph 3.7 mph 72% 0 in 0.00 W/m2 unknown
23:54 75.2 °F 66.2 °F 30 in ENE 1.9 mph 3.1 mph 72% 0 in 0.00 W/m2 unknown
23:59 75.2 °F 66.2 °F 30 in ENE 2.5 mph 3.7 mph 73% 0 in 0.00 W/m2 unknown
Stazione Meteorologica MeteoMincio Rivalta s/M (MN)
Con i complimenti di Weather Underground - 4 mb



METEO PILLOLE
Temperatura più bassa in pianura in Italia
S.Pietro Capofiume - Bologna
-29°C il 13 Gennaio 1985.
Share

Non seguire questo link o sarai bannato dal sito!